![]() |
EMODnet Physics ERDDAP
Easier access to scientific data |
log in|
Brought to you by EMODnet Physics |
| Dataset Title: | NDBC - Collection of dew point temperature (DEWT) TimeSeries - IN SITU MultiPointTimeSeriesObservation
|
| Institution: | NDBC (Dataset ID: TS_DEWT_NDBC) |
| Information: | Summary
| License
| FGDC
| ISO 19115
| Metadata
| Background
| Subset
| Data Access Form
| Make a graph
|
| Name | Last modified | Size | Description | |
|---|---|---|---|---|
| Parent Directory | - | - | ||
| 46060_TS_DEWT_011996.nc | 04-Oct-2024 13:54 | 429814 | ||
| 46060_TS_DEWT_011997.nc | 04-Oct-2024 14:06 | 588137 | ||
| 46060_TS_DEWT_011998.nc | 04-Oct-2024 14:21 | 440291 | ||
| 46060_TS_DEWT_011999.nc | 04-Oct-2024 14:30 | 439841 | ||
| 46060_TS_DEWT_012000.nc | 04-Oct-2024 14:39 | 440277 | ||
| 46060_TS_DEWT_012001.nc | 04-Oct-2024 14:43 | 440091 | ||
| 46060_TS_DEWT_012002.nc | 04-Oct-2024 14:48 | 425661 | ||
| 46060_TS_DEWT_012003.nc | 04-Oct-2024 14:53 | 425691 | ||
| 46060_TS_DEWT_012004.nc | 04-Oct-2024 14:57 | 587922 | ||
| 46060_TS_DEWT_012005.nc | 04-Oct-2024 15:00 | 429451 | ||
| 46060_TS_DEWT_012006.nc | 04-Oct-2024 15:06 | 439619 | ||
| 46060_TS_DEWT_012007.nc | 04-Oct-2024 15:32 | 440075 | ||
| 46060_TS_DEWT_012008.nc | 04-Oct-2024 15:35 | 440001 | ||
| 46060_TS_DEWT_012009.nc | 04-Oct-2024 15:45 | 439328 | ||
| 46060_TS_DEWT_012010.nc | 04-Oct-2024 15:49 | 439391 | ||
| 46060_TS_DEWT_012012.nc | 04-Oct-2024 15:54 | 439882 | ||
| 46060_TS_DEWT_012013.nc | 04-Oct-2024 16:06 | 439592 | ||
| 46060_TS_DEWT_012014.nc | 04-Oct-2024 16:12 | 429835 | ||
| 46060_TS_DEWT_012015.nc | 04-Oct-2024 16:38 | 588138 | ||
| 46060_TS_DEWT_012016.nc | 04-Oct-2024 17:43 | 587872 | ||
| 46060_TS_DEWT_012017.nc | 04-Oct-2024 18:24 | 588072 | ||
| 46060_TS_DEWT_012018.nc | 04-Oct-2024 19:28 | 439839 | ||
| 46060_TS_DEWT_012019.nc | 04-Oct-2024 20:24 | 439980 | ||
| 46060_TS_DEWT_012020.nc | 04-Oct-2024 21:26 | 588041 | ||
| 46060_TS_DEWT_012021.nc | 04-Oct-2024 22:29 | 439364 | ||
| 46060_TS_DEWT_012023.nc | 05-Oct-2024 00:04 | 440242 | ||
| 46060_TS_DEWT_012026.nc | 02-Feb-2026 19:28 | 429375 | ||
| 46060_TS_DEWT_021996.nc | 04-Oct-2024 13:55 | 440014 | ||
| 46060_TS_DEWT_021997.nc | 04-Oct-2024 14:07 | 424766 | ||
| 46060_TS_DEWT_021998.nc | 04-Oct-2024 14:22 | 439924 | ||
| 46060_TS_DEWT_021999.nc | 04-Oct-2024 14:32 | 439611 | ||
| 46060_TS_DEWT_022000.nc | 04-Oct-2024 14:39 | 439952 | ||
| 46060_TS_DEWT_022001.nc | 04-Oct-2024 14:44 | 437727 | ||
| 46060_TS_DEWT_022002.nc | 04-Oct-2024 14:49 | 439931 | ||
| 46060_TS_DEWT_022003.nc | 04-Oct-2024 14:53 | 439117 | ||
| 46060_TS_DEWT_022005.nc | 04-Oct-2024 15:01 | 429789 | ||
| 46060_TS_DEWT_022006.nc | 04-Oct-2024 15:06 | 588037 | ||
| 46060_TS_DEWT_022007.nc | 04-Oct-2024 15:33 | 427709 | ||
| 46060_TS_DEWT_022008.nc | 04-Oct-2024 15:36 | 438903 | ||
| 46060_TS_DEWT_022009.nc | 04-Oct-2024 15:46 | 440287 | ||
| 46060_TS_DEWT_022010.nc | 04-Oct-2024 15:49 | 587980 | ||
| 46060_TS_DEWT_022011.nc | 04-Oct-2024 15:52 | 439972 | ||
| 46060_TS_DEWT_022012.nc | 04-Oct-2024 15:56 | 588010 | ||
| 46060_TS_DEWT_022013.nc | 04-Oct-2024 16:08 | 440244 | ||
| 46060_TS_DEWT_022014.nc | 04-Oct-2024 16:12 | 587970 | ||
| 46060_TS_DEWT_022015.nc | 04-Oct-2024 16:43 | 439639 | ||
| 46060_TS_DEWT_022016.nc | 04-Oct-2024 17:48 | 439513 | ||
| 46060_TS_DEWT_022017.nc | 04-Oct-2024 18:29 | 587747 | ||
| 46060_TS_DEWT_022018.nc | 04-Oct-2024 19:34 | 587864 | ||
| 46060_TS_DEWT_022019.nc | 04-Oct-2024 20:28 | 438742 | ||
| 46060_TS_DEWT_022020.nc | 04-Oct-2024 21:32 | 588084 | ||
| 46060_TS_DEWT_022021.nc | 04-Oct-2024 22:33 | 438427 | ||
| 46060_TS_DEWT_022022.nc | 04-Oct-2024 23:08 | 426274 | ||
| 46060_TS_DEWT_022026.nc | 01-Mar-2026 17:38 | 438002 | ||
| 46060_TS_DEWT_031996.nc | 04-Oct-2024 13:55 | 438374 | ||
| 46060_TS_DEWT_031997.nc | 04-Oct-2024 14:08 | 438988 | ||
| 46060_TS_DEWT_031998.nc | 04-Oct-2024 14:22 | 432330 | ||
| 46060_TS_DEWT_031999.nc | 04-Oct-2024 14:33 | 439829 | ||
| 46060_TS_DEWT_032000.nc | 04-Oct-2024 14:40 | 440192 | ||
| 46060_TS_DEWT_032001.nc | 04-Oct-2024 14:44 | 422032 | ||
| 46060_TS_DEWT_032002.nc | 04-Oct-2024 14:49 | 587871 | ||
| 46060_TS_DEWT_032003.nc | 04-Oct-2024 14:54 | 439917 | ||
| 46060_TS_DEWT_032005.nc | 04-Oct-2024 15:01 | 438954 | ||
| 46060_TS_DEWT_032006.nc | 04-Oct-2024 15:07 | 439799 | ||
| 46060_TS_DEWT_032007.nc | 04-Oct-2024 15:33 | 439191 | ||
| 46060_TS_DEWT_032008.nc | 04-Oct-2024 15:37 | 439647 | ||
| 46060_TS_DEWT_032009.nc | 04-Oct-2024 15:46 | 439776 | ||
| 46060_TS_DEWT_032010.nc | 04-Oct-2024 15:49 | 439973 | ||
| 46060_TS_DEWT_032011.nc | 04-Oct-2024 15:52 | 439235 | ||
| 46060_TS_DEWT_032013.nc | 04-Oct-2024 16:09 | 587851 | ||
| 46060_TS_DEWT_032014.nc | 04-Oct-2024 16:12 | 587913 | ||
| 46060_TS_DEWT_032015.nc | 04-Oct-2024 16:50 | 587979 | ||
| 46060_TS_DEWT_032017.nc | 04-Oct-2024 18:35 | 440199 | ||
| 46060_TS_DEWT_032018.nc | 04-Oct-2024 19:38 | 439618 | ||
| 46060_TS_DEWT_032019.nc | 04-Oct-2024 20:33 | 439521 | ||
| 46060_TS_DEWT_032020.nc | 04-Oct-2024 21:38 | 439819 | ||
| 46060_TS_DEWT_032021.nc | 04-Oct-2024 22:39 | 440022 | ||
| 46060_TS_DEWT_032022.nc | 04-Oct-2024 23:13 | 439918 | ||
| 46060_TS_DEWT_032026.nc | 23-Mar-2026 11:00 | 437305 | ||
| 46060_TS_DEWT_041996.nc | 04-Oct-2024 13:56 | 440240 | ||
| 46060_TS_DEWT_041997.nc | 04-Oct-2024 14:08 | 440096 | ||
| 46060_TS_DEWT_041998.nc | 04-Oct-2024 14:23 | 440367 | ||
| 46060_TS_DEWT_041999.nc | 04-Oct-2024 14:35 | 588009 | ||
| 46060_TS_DEWT_042000.nc | 04-Oct-2024 14:40 | 588115 | ||
| 46060_TS_DEWT_042001.nc | 04-Oct-2024 14:45 | 439488 | ||
| 46060_TS_DEWT_042002.nc | 04-Oct-2024 14:49 | 439836 | ||
| 46060_TS_DEWT_042003.nc | 04-Oct-2024 14:54 | 587797 | ||
| 46060_TS_DEWT_042005.nc | 04-Oct-2024 15:02 | 587735 | ||
| 46060_TS_DEWT_042006.nc | 04-Oct-2024 15:07 | 440270 | ||
| 46060_TS_DEWT_042007.nc | 04-Oct-2024 15:33 | 438794 | ||
| 46060_TS_DEWT_042008.nc | 04-Oct-2024 15:39 | 439109 | ||
| 46060_TS_DEWT_042009.nc | 04-Oct-2024 15:46 | 439648 | ||
| 46060_TS_DEWT_042010.nc | 04-Oct-2024 15:50 | 439918 | ||
| 46060_TS_DEWT_042011.nc | 04-Oct-2024 15:52 | 439899 | ||
| 46060_TS_DEWT_042013.nc | 04-Oct-2024 16:09 | 432186 | ||
| 46060_TS_DEWT_042014.nc | 04-Oct-2024 16:13 | 439156 | ||
| 46060_TS_DEWT_042015.nc | 04-Oct-2024 16:56 | 440083 | ||
| 46060_TS_DEWT_042017.nc | 04-Oct-2024 18:41 | 440273 | ||
| 46060_TS_DEWT_042018.nc | 04-Oct-2024 19:42 | 588063 | ||
| 46060_TS_DEWT_042019.nc | 04-Oct-2024 20:37 | 587953 | ||
| 46060_TS_DEWT_042021.nc | 04-Oct-2024 22:44 | 439559 | ||
| 46060_TS_DEWT_042022.nc | 04-Oct-2024 23:19 | 438801 | ||
| 46060_TS_DEWT_051995.nc | 04-Oct-2024 13:50 | 439855 | ||
| 46060_TS_DEWT_051996.nc | 04-Oct-2024 13:56 | 437909 | ||
| 46060_TS_DEWT_051997.nc | 04-Oct-2024 14:10 | 439933 | ||
| 46060_TS_DEWT_051998.nc | 04-Oct-2024 14:23 | 439611 | ||
| 46060_TS_DEWT_051999.nc | 04-Oct-2024 14:35 | 439480 | ||
| 46060_TS_DEWT_052000.nc | 04-Oct-2024 14:40 | 439383 | ||
| 46060_TS_DEWT_052001.nc | 04-Oct-2024 14:45 | 439556 | ||
| 46060_TS_DEWT_052002.nc | 04-Oct-2024 14:50 | 587805 | ||
| 46060_TS_DEWT_052003.nc | 04-Oct-2024 14:54 | 439905 | ||
| 46060_TS_DEWT_052004.nc | 04-Oct-2024 14:58 | 587996 | ||
| 46060_TS_DEWT_052005.nc | 04-Oct-2024 15:02 | 437811 | ||
| 46060_TS_DEWT_052006.nc | 04-Oct-2024 15:08 | 588058 | ||
| 46060_TS_DEWT_052007.nc | 04-Oct-2024 15:33 | 439800 | ||
| 46060_TS_DEWT_052008.nc | 04-Oct-2024 15:41 | 438981 | ||
| 46060_TS_DEWT_052009.nc | 04-Oct-2024 15:46 | 587979 | ||
| 46060_TS_DEWT_052010.nc | 04-Oct-2024 15:50 | 588050 | ||
| 46060_TS_DEWT_052011.nc | 04-Oct-2024 15:52 | 587953 | ||
| 46060_TS_DEWT_052013.nc | 04-Oct-2024 16:10 | 588028 | ||
| 46060_TS_DEWT_052014.nc | 04-Oct-2024 16:13 | 439864 | ||
| 46060_TS_DEWT_052015.nc | 04-Oct-2024 17:01 | 438922 | ||
| 46060_TS_DEWT_052017.nc | 04-Oct-2024 18:46 | 588078 | ||
| 46060_TS_DEWT_052018.nc | 04-Oct-2024 19:45 | 430378 | ||
| 46060_TS_DEWT_052020.nc | 04-Oct-2024 21:47 | 438811 | ||
| 46060_TS_DEWT_052021.nc | 04-Oct-2024 22:48 | 425395 | ||
| 46060_TS_DEWT_052022.nc | 04-Oct-2024 23:24 | 433544 | ||
| 46060_TS_DEWT_061995.nc | 04-Oct-2024 13:51 | 438631 | ||
| 46060_TS_DEWT_061996.nc | 04-Oct-2024 13:57 | 439258 | ||
| 46060_TS_DEWT_061997.nc | 04-Oct-2024 14:12 | 438625 | ||
| 46060_TS_DEWT_061998.nc | 04-Oct-2024 14:24 | 438065 | ||
| 46060_TS_DEWT_061999.nc | 04-Oct-2024 14:36 | 438581 | ||
| 46060_TS_DEWT_062000.nc | 04-Oct-2024 14:41 | 439436 | ||
| 46060_TS_DEWT_062001.nc | 04-Oct-2024 14:46 | 438718 | ||
| 46060_TS_DEWT_062002.nc | 04-Oct-2024 14:50 | 424507 | ||
| 46060_TS_DEWT_062003.nc | 04-Oct-2024 14:55 | 440335 | ||
| 46060_TS_DEWT_062004.nc | 04-Oct-2024 14:58 | 431185 | ||
| 46060_TS_DEWT_062005.nc | 04-Oct-2024 15:03 | 588042 | ||
| 46060_TS_DEWT_062006.nc | 04-Oct-2024 15:08 | 430931 | ||
| 46060_TS_DEWT_062007.nc | 04-Oct-2024 15:34 | 587890 | ||
| 46060_TS_DEWT_062008.nc | 04-Oct-2024 15:42 | 587856 | ||
| 46060_TS_DEWT_062009.nc | 04-Oct-2024 15:47 | 587821 | ||
| 46060_TS_DEWT_062010.nc | 04-Oct-2024 15:50 | 588167 | ||
| 46060_TS_DEWT_062011.nc | 04-Oct-2024 15:53 | 435058 | ||
| 46060_TS_DEWT_062013.nc | 04-Oct-2024 16:10 | 588166 | ||
| 46060_TS_DEWT_062014.nc | 04-Oct-2024 16:13 | 439621 | ||
| 46060_TS_DEWT_062015.nc | 04-Oct-2024 17:08 | 439996 | ||
| 46060_TS_DEWT_062017.nc | 04-Oct-2024 18:52 | 439771 | ||
| 46060_TS_DEWT_062018.nc | 04-Oct-2024 19:50 | 426028 | ||
| 46060_TS_DEWT_062019.nc | 04-Oct-2024 20:47 | 440025 | ||
| 46060_TS_DEWT_062020.nc | 04-Oct-2024 21:52 | 439763 | ||
| 46060_TS_DEWT_062021.nc | 04-Oct-2024 22:53 | 439874 | ||
| 46060_TS_DEWT_062022.nc | 04-Oct-2024 23:29 | 440153 | ||
| 46060_TS_DEWT_062023.nc | 05-Oct-2024 00:09 | 440134 | ||
| 46060_TS_DEWT_062025.nc | 01-Jul-2025 03:53 | 425324 | ||
| 46060_TS_DEWT_071995.nc | 04-Oct-2024 13:51 | 439440 | ||
| 46060_TS_DEWT_071996.nc | 04-Oct-2024 13:57 | 587938 | ||
| 46060_TS_DEWT_071997.nc | 04-Oct-2024 14:14 | 425763 | ||
| 46060_TS_DEWT_071998.nc | 04-Oct-2024 14:24 | 588032 | ||
| 46060_TS_DEWT_071999.nc | 04-Oct-2024 14:36 | 587823 | ||
| 46060_TS_DEWT_072000.nc | 04-Oct-2024 14:41 | 587894 | ||
| 46060_TS_DEWT_072001.nc | 04-Oct-2024 14:46 | 440077 | ||
| 46060_TS_DEWT_072002.nc | 04-Oct-2024 14:51 | 588138 | ||
| 46060_TS_DEWT_072003.nc | 04-Oct-2024 14:55 | 588186 | ||
| 46060_TS_DEWT_072004.nc | 04-Oct-2024 14:59 | 588077 | ||
| 46060_TS_DEWT_072005.nc | 04-Oct-2024 15:03 | 439672 | ||
| 46060_TS_DEWT_072006.nc | 04-Oct-2024 15:08 | 439867 | ||
| 46060_TS_DEWT_072007.nc | 04-Oct-2024 15:34 | 440074 | ||
| 46060_TS_DEWT_072008.nc | 04-Oct-2024 15:44 | 439967 | ||
| 46060_TS_DEWT_072009.nc | 04-Oct-2024 15:47 | 439648 | ||
| 46060_TS_DEWT_072010.nc | 04-Oct-2024 15:50 | 439785 | ||
| 46060_TS_DEWT_072013.nc | 04-Oct-2024 16:10 | 431567 | ||
| 46060_TS_DEWT_072014.nc | 04-Oct-2024 16:13 | 440102 | ||
| 46060_TS_DEWT_072015.nc | 04-Oct-2024 17:14 | 439701 | ||
| 46060_TS_DEWT_072016.nc | 04-Oct-2024 17:53 | 440340 | ||
| 46060_TS_DEWT_072017.nc | 04-Oct-2024 18:58 | 587914 | ||
| 46060_TS_DEWT_072018.nc | 04-Oct-2024 19:54 | 588019 | ||
| 46060_TS_DEWT_072019.nc | 04-Oct-2024 20:52 | 588087 | ||
| 46060_TS_DEWT_072020.nc | 04-Oct-2024 21:58 | 440304 | ||
| 46060_TS_DEWT_072021.nc | 04-Oct-2024 22:57 | 440328 | ||
| 46060_TS_DEWT_072022.nc | 04-Oct-2024 23:34 | 588034 | ||
| 46060_TS_DEWT_072023.nc | 05-Oct-2024 00:14 | 588176 | ||
| 46060_TS_DEWT_072025.nc | 01-Aug-2025 03:58 | 440353 | ||
| 46060_TS_DEWT_081995.nc | 04-Oct-2024 13:52 | 440188 | ||
| 46060_TS_DEWT_081997.nc | 04-Oct-2024 14:15 | 587827 | ||
| 46060_TS_DEWT_081998.nc | 04-Oct-2024 14:25 | 440295 | ||
| 46060_TS_DEWT_081999.nc | 04-Oct-2024 14:36 | 440314 | ||
| 46060_TS_DEWT_082000.nc | 04-Oct-2024 14:41 | 438449 | ||
| 46060_TS_DEWT_082001.nc | 04-Oct-2024 14:47 | 437627 | ||
| 46060_TS_DEWT_082002.nc | 04-Oct-2024 14:51 | 588073 | ||
| 46060_TS_DEWT_082003.nc | 04-Oct-2024 14:55 | 587948 | ||
| 46060_TS_DEWT_082004.nc | 04-Oct-2024 14:59 | 439500 | ||
| 46060_TS_DEWT_082005.nc | 04-Oct-2024 15:03 | 439943 | ||
| 46060_TS_DEWT_082006.nc | 04-Oct-2024 15:10 | 439946 | ||
| 46060_TS_DEWT_082007.nc | 04-Oct-2024 15:34 | 439956 | ||
| 46060_TS_DEWT_082008.nc | 04-Oct-2024 15:44 | 439617 | ||
| 46060_TS_DEWT_082009.nc | 04-Oct-2024 15:47 | 438817 | ||
| 46060_TS_DEWT_082010.nc | 04-Oct-2024 15:51 | 440109 | ||
| 46060_TS_DEWT_082011.nc | 04-Oct-2024 15:53 | 440054 | ||
| 46060_TS_DEWT_082012.nc | 04-Oct-2024 15:58 | 430048 | ||
| 46060_TS_DEWT_082013.nc | 04-Oct-2024 16:10 | 431110 | ||
| 46060_TS_DEWT_082014.nc | 04-Oct-2024 16:14 | 429105 | ||
| 46060_TS_DEWT_082015.nc | 04-Oct-2024 17:17 | 440346 | ||
| 46060_TS_DEWT_082016.nc | 04-Oct-2024 17:59 | 588140 | ||
| 46060_TS_DEWT_082017.nc | 04-Oct-2024 19:03 | 588111 | ||
| 46060_TS_DEWT_082018.nc | 04-Oct-2024 19:59 | 588041 | ||
| 46060_TS_DEWT_082019.nc | 04-Oct-2024 20:57 | 440126 | ||
| 46060_TS_DEWT_082020.nc | 04-Oct-2024 22:03 | 428894 | ||
| 46060_TS_DEWT_082021.nc | 04-Oct-2024 23:02 | 588098 | ||
| 46060_TS_DEWT_082022.nc | 04-Oct-2024 23:38 | 435401 | ||
| 46060_TS_DEWT_082023.nc | 05-Oct-2024 00:19 | 423011 | ||
| 46060_TS_DEWT_082025.nc | 01-Sep-2025 04:05 | 588191 | ||
| 46060_TS_DEWT_091995.nc | 04-Oct-2024 13:52 | 588252 | ||
| 46060_TS_DEWT_091996.nc | 04-Oct-2024 14:00 | 439855 | ||
| 46060_TS_DEWT_091997.nc | 04-Oct-2024 14:17 | 438206 | ||
| 46060_TS_DEWT_091998.nc | 04-Oct-2024 14:25 | 439985 | ||
| 46060_TS_DEWT_091999.nc | 04-Oct-2024 14:37 | 439955 | ||
| 46060_TS_DEWT_092000.nc | 04-Oct-2024 14:42 | 439572 | ||
| 46060_TS_DEWT_092001.nc | 04-Oct-2024 14:47 | 439934 | ||
| 46060_TS_DEWT_092002.nc | 04-Oct-2024 14:51 | 440134 | ||
| 46060_TS_DEWT_092003.nc | 04-Oct-2024 14:56 | 421846 | ||
| 46060_TS_DEWT_092004.nc | 04-Oct-2024 14:59 | 440022 | ||
| 46060_TS_DEWT_092005.nc | 04-Oct-2024 15:04 | 436773 | ||
| 46060_TS_DEWT_092006.nc | 04-Oct-2024 15:12 | 588056 | ||
| 46060_TS_DEWT_092007.nc | 04-Oct-2024 15:34 | 440090 | ||
| 46060_TS_DEWT_092008.nc | 04-Oct-2024 15:44 | 588128 | ||
| 46060_TS_DEWT_092009.nc | 04-Oct-2024 15:47 | 587875 | ||
| 46060_TS_DEWT_092010.nc | 04-Oct-2024 15:51 | 588031 | ||
| 46060_TS_DEWT_092011.nc | 04-Oct-2024 15:53 | 434418 | ||
| 46060_TS_DEWT_092012.nc | 04-Oct-2024 15:59 | 440218 | ||
| 46060_TS_DEWT_092013.nc | 04-Oct-2024 16:11 | 588145 | ||
| 46060_TS_DEWT_092014.nc | 04-Oct-2024 16:14 | 728177 | ||
| 46060_TS_DEWT_092015.nc | 04-Oct-2024 17:23 | 439789 | ||
| 46060_TS_DEWT_092016.nc | 04-Oct-2024 18:05 | 587941 | ||
| 46060_TS_DEWT_092017.nc | 04-Oct-2024 19:07 | 588019 | ||
| 46060_TS_DEWT_092018.nc | 04-Oct-2024 20:05 | 588131 | ||
| 46060_TS_DEWT_092019.nc | 04-Oct-2024 21:03 | 440329 | ||
| 46060_TS_DEWT_092020.nc | 04-Oct-2024 22:07 | 588143 | ||
| 46060_TS_DEWT_092022.nc | 04-Oct-2024 23:43 | 588142 | ||
| 46060_TS_DEWT_092023.nc | 05-Oct-2024 00:23 | 588209 | ||
| 46060_TS_DEWT_092025.nc | 01-Oct-2025 03:25 | 588094 | ||
| 46060_TS_DEWT_101995.nc | 04-Oct-2024 13:53 | 418875 | ||
| 46060_TS_DEWT_101996.nc | 04-Oct-2024 14:02 | 438557 | ||
| 46060_TS_DEWT_101997.nc | 04-Oct-2024 14:19 | 438549 | ||
| 46060_TS_DEWT_101998.nc | 04-Oct-2024 14:26 | 438346 | ||
| 46060_TS_DEWT_101999.nc | 04-Oct-2024 14:37 | 431581 | ||
| 46060_TS_DEWT_102000.nc | 04-Oct-2024 14:42 | 438599 | ||
| 46060_TS_DEWT_102001.nc | 04-Oct-2024 14:47 | 438550 | ||
| 46060_TS_DEWT_102002.nc | 04-Oct-2024 14:52 | 435255 | ||
| 46060_TS_DEWT_102003.nc | 04-Oct-2024 14:56 | 439434 | ||
| 46060_TS_DEWT_102004.nc | 04-Oct-2024 15:00 | 438669 | ||
| 46060_TS_DEWT_102005.nc | 04-Oct-2024 15:04 | 438793 | ||
| 46060_TS_DEWT_102006.nc | 04-Oct-2024 15:14 | 426226 | ||
| 46060_TS_DEWT_102007.nc | 04-Oct-2024 15:34 | 437161 | ||
| 46060_TS_DEWT_102008.nc | 04-Oct-2024 15:44 | 440204 | ||
| 46060_TS_DEWT_102009.nc | 04-Oct-2024 15:48 | 440030 | ||
| 46060_TS_DEWT_102010.nc | 04-Oct-2024 15:51 | 587949 | ||
| 46060_TS_DEWT_102011.nc | 04-Oct-2024 15:54 | 439744 | ||
| 46060_TS_DEWT_102012.nc | 04-Oct-2024 16:01 | 587930 | ||
| 46060_TS_DEWT_102013.nc | 04-Oct-2024 16:11 | 588107 | ||
| 46060_TS_DEWT_102014.nc | 04-Oct-2024 16:19 | 587836 | ||
| 46060_TS_DEWT_102015.nc | 04-Oct-2024 17:27 | 588173 | ||
| 46060_TS_DEWT_102016.nc | 04-Oct-2024 18:10 | 435047 | ||
| 46060_TS_DEWT_102017.nc | 04-Oct-2024 19:12 | 588184 | ||
| 46060_TS_DEWT_102018.nc | 04-Oct-2024 20:11 | 439536 | ||
| 46060_TS_DEWT_102019.nc | 04-Oct-2024 21:09 | 439904 | ||
| 46060_TS_DEWT_102020.nc | 04-Oct-2024 22:13 | 439392 | ||
| 46060_TS_DEWT_102022.nc | 04-Oct-2024 23:49 | 439717 | ||
| 46060_TS_DEWT_102023.nc | 05-Oct-2024 00:27 | 440065 | ||
| 46060_TS_DEWT_102025.nc | 01-Nov-2025 04:32 | 440028 | ||
| 46060_TS_DEWT_111995.nc | 04-Oct-2024 13:53 | 440020 | ||
| 46060_TS_DEWT_111996.nc | 04-Oct-2024 14:04 | 439845 | ||
| 46060_TS_DEWT_111997.nc | 04-Oct-2024 14:20 | 440131 | ||
| 46060_TS_DEWT_111998.nc | 04-Oct-2024 14:26 | 436442 | ||
| 46060_TS_DEWT_111999.nc | 04-Oct-2024 14:38 | 440137 | ||
| 46060_TS_DEWT_112000.nc | 04-Oct-2024 14:43 | 439362 | ||
| 46060_TS_DEWT_112001.nc | 04-Oct-2024 14:48 | 587907 | ||
| 46060_TS_DEWT_112002.nc | 04-Oct-2024 14:52 | 588011 | ||
| 46060_TS_DEWT_112003.nc | 04-Oct-2024 14:57 | 587957 | ||
| 46060_TS_DEWT_112005.nc | 04-Oct-2024 15:05 | 587891 | ||
| 46060_TS_DEWT_112006.nc | 04-Oct-2024 15:32 | 438397 | ||
| 46060_TS_DEWT_112007.nc | 04-Oct-2024 15:35 | 588064 | ||
| 46060_TS_DEWT_112008.nc | 04-Oct-2024 15:45 | 588192 | ||
| 46060_TS_DEWT_112009.nc | 04-Oct-2024 15:48 | 588199 | ||
| 46060_TS_DEWT_112010.nc | 04-Oct-2024 15:52 | 588185 | ||
| 46060_TS_DEWT_112011.nc | 04-Oct-2024 15:54 | 439563 | ||
| 46060_TS_DEWT_112012.nc | 04-Oct-2024 16:03 | 439893 | ||
| 46060_TS_DEWT_112013.nc | 04-Oct-2024 16:11 | 435683 | ||
| 46060_TS_DEWT_112014.nc | 04-Oct-2024 16:25 | 439807 | ||
| 46060_TS_DEWT_112015.nc | 04-Oct-2024 17:34 | 439711 | ||
| 46060_TS_DEWT_112016.nc | 04-Oct-2024 18:15 | 439735 | ||
| 46060_TS_DEWT_112017.nc | 04-Oct-2024 19:18 | 439470 | ||
| 46060_TS_DEWT_112018.nc | 04-Oct-2024 20:16 | 439921 | ||
| 46060_TS_DEWT_112019.nc | 04-Oct-2024 21:15 | 440066 | ||
| 46060_TS_DEWT_112020.nc | 04-Oct-2024 22:20 | 440084 | ||
| 46060_TS_DEWT_112022.nc | 04-Oct-2024 23:54 | 440195 | ||
| 46060_TS_DEWT_112023.nc | 05-Oct-2024 00:32 | 587860 | ||
| 46060_TS_DEWT_112025.nc | 01-Dec-2025 05:57 | 434899 | ||
| 46060_TS_DEWT_121995.nc | 04-Oct-2024 13:54 | 587817 | ||
| 46060_TS_DEWT_121996.nc | 04-Oct-2024 14:05 | 587851 | ||
| 46060_TS_DEWT_121997.nc | 04-Oct-2024 14:21 | 588016 | ||
| 46060_TS_DEWT_121998.nc | 04-Oct-2024 14:28 | 588107 | ||
| 46060_TS_DEWT_121999.nc | 04-Oct-2024 14:38 | 588072 | ||
| 46060_TS_DEWT_122000.nc | 04-Oct-2024 14:43 | 588185 | ||
| 46060_TS_DEWT_122001.nc | 04-Oct-2024 14:48 | 440051 | ||
| 46060_TS_DEWT_122002.nc | 04-Oct-2024 14:53 | 587915 | ||
| 46060_TS_DEWT_122003.nc | 04-Oct-2024 14:57 | 440353 | ||
| 46060_TS_DEWT_122004.nc | 04-Oct-2024 15:00 | 439033 | ||
| 46060_TS_DEWT_122005.nc | 04-Oct-2024 15:05 | 439929 | ||
| 46060_TS_DEWT_122006.nc | 04-Oct-2024 15:32 | 588034 | ||
| 46060_TS_DEWT_122007.nc | 04-Oct-2024 15:35 | 588093 | ||
| 46060_TS_DEWT_122008.nc | 04-Oct-2024 15:45 | 588204 | ||
| 46060_TS_DEWT_122009.nc | 04-Oct-2024 15:48 | 439472 | ||
| 46060_TS_DEWT_122011.nc | 04-Oct-2024 15:54 | 439859 | ||
| 46060_TS_DEWT_122012.nc | 04-Oct-2024 16:04 | 431454 | ||
| 46060_TS_DEWT_122013.nc | 04-Oct-2024 16:11 | 423129 | ||
| 46060_TS_DEWT_122014.nc | 04-Oct-2024 16:31 | 439714 | ||
| 46060_TS_DEWT_122015.nc | 04-Oct-2024 17:38 | 439558 | ||
| 46060_TS_DEWT_122016.nc | 04-Oct-2024 18:20 | 440116 | ||
| 46060_TS_DEWT_122017.nc | 04-Oct-2024 19:22 | 440103 | ||
| 46060_TS_DEWT_122018.nc | 04-Oct-2024 20:20 | 440101 | ||
| 46060_TS_DEWT_122019.nc | 04-Oct-2024 21:21 | 440161 | ||
| 46060_TS_DEWT_122020.nc | 04-Oct-2024 22:25 | 427897 | ||
| 46060_TS_DEWT_122022.nc | 04-Oct-2024 23:58 | 440298 | ||
| 46060_TS_DEWT_122023.nc | 05-Oct-2024 00:37 | 588056 | ||
| 46060_TS_DEWT_122025.nc | 01-Jan-2026 07:26 | 588023 | ||